Hourly Data Report for August 19, 2021

KUGLUKTUK A
NUNAVUT
Current Station Operator: NAVCAN

67°49'00.000" N
115°08'38.000" W
22.60 m
2300903
71938
YCO

Download Data

Hourly Data (August 2021)
Hourly Data Report for August 19, 2021
TIME
LST
Temp Definition
°C
Dew Point Definition
°C
Rel Hum Definition
%
Precip. Amount Definition
mm

Wind Dir Definition
10's deg

Wind Spd Definition
km/h
Visibility Definition
km
Stn Press Definition
kPa
Hmdx Definition


Wind Chill Definition


Weather Definition


00:00 4.3 1.8 84   32 21 24.1 101.23     LegendNANA
01:00 3.2 1.5 88   29 16 24.1 101.25     LegendNANA
02:00 2.8 1.2 89   28 14 24.1 101.32     Mostly Cloudy
03:00 3.1 1.4 88   29 14 24.1 101.41     LegendNANA
04:00 2.6 1.2 91   27 17 24.1 101.44     LegendNANA
05:00 1.6 0.6 93   26 17 24.1 101.46     Mostly Cloudy
06:00 1.3 0.3 93   26 18 24.1 101.50     LegendNANA
07:00 2.9 1.3 89   25 13 24.1 101.56     LegendNANA
08:00 3.3 1.0 85   27 16 24.1 101.61     Mostly Cloudy
09:00 5.4 1.6 76   27 12 24.1 101.63     LegendNANA
10:00 6.6 2.4 74   36 9 24.1 101.65     LegendNANA
11:00 7.6 2.2 69   1 5 24.1 101.67     Mostly Cloudy
12:00 8.6 3.1 69   21 4 24.1 101.68     LegendNANA
13:00 9.9 3.1 62   35 3 24.1 101.70     LegendNANA
14:00 10.4 1.6 54   1 7 24.1 101.71     Mainly Clear
15:00 10.9 3.2 59   6 10 24.1 101.72     LegendNANA
16:00 10.6 2.6 57   11 14 24.1 101.72     LegendNANA
17:00 10.9 2.6 56   11 13 24.1 101.72     Mostly Cloudy
18:00 11.0 2.3 55   11 12 24.1 101.70     LegendNANA
19:00 11.0 2.8 57   15 15 24.1 101.68     LegendNANA
20:00 9.4 2.9 64   16 14 24.1 101.66     Mainly Clear
21:00 7.2 2.8 74   18 14 24.1 101.64     LegendNANA
22:00 6.3 1.9 73   19 17 24.1 101.63     LegendNANA
23:00 3.5 0.6 81   21 19 24.1 101.64     Mainly Clear

Notes on Data Quality.

Legend

  • E = Estimated
  • M = Missing
  • NA = Not Available*
  • [empty] = Indicates an unobserved value
Date modified: